Time,TemperatureF,DewpointF,PressureIn,WindDirection,WindDirectionDegrees,WindSpeedMPH,WindSpeedGustMPH,Humidity,HourlyPrecipIn,Conditions,Clouds,dailyrainin,SoftwareType,DateUTC
2013-01-25 00:02:00,24.0,5.0,30.32,East,98,7.0,11.0,43,0.00,,,0.00,,2013-01-25 06:02:00,
2013-01-25 00:11:00,24.0,5.0,30.32,East,98,7.0,11.0,43,0.00,,,0.00,,2013-01-25 06:11:00,
2013-01-25 00:21:00,25.0,6.0,30.33,ESE,108,2.0,8.0,43,0.00,,,0.00,,2013-01-25 06:21:00,
2013-01-25 00:32:00,25.0,6.0,30.33,ESE,108,2.0,8.0,43,0.00,,,0.00,,2013-01-25 06:32:00,
2013-01-25 00:42:00,24.0,5.0,30.27,SE,139,6.0,13.0,43,0.00,,,0.00,,2013-01-25 06:42:00,
2013-01-25 00:52:00,24.0,5.0,30.27,SE,139,6.0,13.0,43,0.00,,,0.00,,2013-01-25 06:52:00,
2013-01-25 01:02:00,24.0,5.0,30.27,SE,139,6.0,13.0,43,0.00,,,0.00,,2013-01-25 07:02:00,
2013-01-25 01:11:00,24.0,5.0,30.25,SE,139,3.0,13.0,43,0.00,,,0.00,,2013-01-25 07:11:00,
2013-01-25 01:21:00,24.0,5.0,30.25,SE,139,3.0,13.0,43,0.00,,,0.00,,2013-01-25 07:21:00,
2013-01-25 01:31:00,24.0,5.0,30.25,SE,139,3.0,13.0,43,0.00,,,0.00,,2013-01-25 07:31:00,
2013-01-25 01:42:00,24.0,5.0,30.25,SE,139,3.0,13.0,43,0.00,,,0.00,,2013-01-25 07:42:00,
2013-01-25 01:52:00,24.0,5.0,30.22,SE,128,7.0,14.0,43,0.00,,,0.00,,2013-01-25 07:52:00,
2013-01-25 02:01:00,24.0,5.0,30.22,SE,128,7.0,14.0,43,0.00,,,0.00,,2013-01-25 08:01:00,
2013-01-25 02:11:00,25.0,6.0,30.22,SE,137,9.0,16.0,43,0.00,,,0.00,,2013-01-25 08:11:00,
2013-01-25 02:21:00,25.0,6.0,30.22,SE,137,9.0,16.0,43,0.00,,,0.00,,2013-01-25 08:21:00,
2013-01-25 02:32:00,25.0,6.0,30.22,SE,137,9.0,16.0,43,0.00,,,0.00,,2013-01-25 08:32:00,
2013-01-25 02:42:00,25.0,6.0,30.22,SE,137,9.0,16.0,43,0.00,,,0.00,,2013-01-25 08:42:00,
2013-01-25 02:52:00,24.0,5.0,30.20,SE,127,4.0,13.0,44,0.00,,,0.00,,2013-01-25 08:52:00,
2013-01-25 03:01:00,24.0,5.0,30.20,SE,127,4.0,13.0,44,0.00,,,0.00,,2013-01-25 09:01:00,
2013-01-25 03:11:00,24.0,5.0,30.19,SE,144,7.0,12.0,44,0.00,,,0.00,,2013-01-25 09:11:00,
2013-01-25 03:21:00,24.0,5.0,30.19,SE,144,7.0,12.0,44,0.00,,,0.00,,2013-01-25 09:21:00,
2013-01-25 03:31:00,24.0,5.0,30.19,SE,144,7.0,12.0,44,0.00,,,0.00,,2013-01-25 09:31:00,
2013-01-25 03:42:00,24.0,5.0,30.19,SE,144,7.0,12.0,44,0.00,,,0.00,,2013-01-25 09:42:00,
2013-01-25 03:52:00,24.0,6.0,30.16,SE,138,6.0,11.0,46,0.00,,,0.00,,2013-01-25 09:52:00,
2013-01-25 04:01:00,24.0,6.0,30.16,SE,138,6.0,11.0,46,0.00,,,0.00,,2013-01-25 10:01:00,
2013-01-25 04:12:00,24.0,7.0,30.18,SE,144,2.0,9.0,47,0.00,,,0.00,,2013-01-25 10:12:00,
2013-01-25 04:21:00,24.0,7.0,30.18,SE,144,2.0,9.0,47,0.00,,,0.00,,2013-01-25 10:21:00,
2013-01-25 04:31:00,24.0,7.0,30.18,SE,144,2.0,9.0,47,0.00,,,0.00,,2013-01-25 10:31:00,
2013-01-25 04:42:00,24.0,7.0,30.18,SE,144,2.0,9.0,47,0.00,,,0.00,,2013-01-25 10:42:00,
2013-01-25 04:52:00,24.0,8.0,30.15,SE,140,3.0,8.0,50,0.00,,,0.00,,2013-01-25 10:52:00,
2013-01-25 05:02:00,24.0,8.0,30.15,SE,140,3.0,8.0,50,0.00,,,0.00,,2013-01-25 11:02:00,
2013-01-25 05:11:00,24.0,8.0,30.15,SE,140,3.0,8.0,50,0.00,,,0.00,,2013-01-25 11:11:00,
2013-01-25 05:22:00,23.0,12.0,30.17,SE,141,0.0,2.0,62,0.00,,,0.00,,2013-01-25 11:22:00,
2013-01-25 05:32:00,23.0,12.0,30.17,SE,141,0.0,2.0,62,0.00,,,0.00,,2013-01-25 11:32:00,
2013-01-25 05:42:00,23.0,12.0,30.17,SE,141,0.0,2.0,62,0.00,,,0.00,,2013-01-25 11:42:00,
2013-01-25 05:52:00,23.0,14.0,30.16,SE,141,2.0,3.0,67,0.00,,,0.00,,2013-01-25 11:52:00,
2013-01-25 06:02:00,23.0,14.0,30.16,SE,141,2.0,3.0,67,0.00,,,0.00,,2013-01-25 12:02:00,
2013-01-25 06:11:00,23.0,14.0,30.16,SE,141,2.0,3.0,67,0.00,,,0.00,,2013-01-25 12:11:00,
2013-01-25 06:22:00,23.0,14.0,30.14,SE,143,2.0,5.0,69,0.00,,,0.00,,2013-01-25 12:22:00,
2013-01-25 06:32:00,23.0,14.0,30.14,SE,143,2.0,5.0,69,0.00,,,0.00,,2013-01-25 12:32:00,
2013-01-25 06:42:00,23.0,14.0,30.14,SE,143,2.0,5.0,69,0.00,,,0.00,,2013-01-25 12:42:00,
2013-01-25 06:53:00,23.0,16.0,30.13,SE,130,1.0,6.0,73,0.00,,,0.00,,2013-01-25 12:53:00,
2013-01-25 07:02:00,23.0,16.0,30.13,SE,130,1.0,6.0,73,0.00,,,0.00,,2013-01-25 13:02:00,
2013-01-25 07:11:00,23.0,16.0,30.13,SE,130,1.0,6.0,73,0.00,,,0.00,,2013-01-25 13:11:00,
2013-01-25 07:22:00,23.0,16.0,30.13,SE,137,2.0,6.0,73,0.00,,,0.00,,2013-01-25 13:22:00,
2013-01-25 07:32:00,23.0,16.0,30.13,SE,137,2.0,6.0,73,0.00,,,0.00,,2013-01-25 13:32:00,
2013-01-25 07:43:00,23.0,16.0,30.13,SE,137,2.0,6.0,73,0.00,,,0.00,,2013-01-25 13:43:00,
2013-01-25 07:53:00,23.0,16.0,30.14,SE,137,0.0,3.0,75,0.00,,,0.00,,2013-01-25 13:53:00,
2013-01-25 08:02:00,23.0,16.0,30.14,SE,137,0.0,3.0,75,0.00,,,0.00,,2013-01-25 14:02:00,
2013-01-25 08:12:00,23.0,16.0,30.14,SE,137,0.0,3.0,75,0.00,,,0.00,,2013-01-25 14:12:00,
2013-01-25 08:22:00,23.0,16.0,30.14,SE,137,0.0,3.0,75,0.00,,,0.00,,2013-01-25 14:22:00,
2013-01-25 08:32:00,23.0,16.0,30.14,SE,137,0.0,3.0,75,0.00,,,0.00,,2013-01-25 14:32:00,
2013-01-25 08:42:00,23.0,16.0,30.14,SE,137,0.0,3.0,75,0.00,,,0.00,,2013-01-25 14:42:00,
2013-01-25 08:53:00,23.0,16.0,30.14,SE,137,1.0,3.0,75,0.00,,,0.00,,2013-01-25 14:53:00,
2013-01-25 09:02:00,23.0,16.0,30.14,SE,137,1.0,3.0,75,0.00,,,0.00,,2013-01-25 15:02:00,
2013-01-25 09:12:00,23.0,16.0,30.14,SE,137,1.0,3.0,75,0.00,,,0.00,,2013-01-25 15:12:00,
2013-01-25 09:22:00,24.0,17.0,30.13,SE,137,3.0,5.0,75,0.00,,,0.00,,2013-01-25 15:22:00,
2013-01-25 09:32:00,24.0,17.0,30.13,SE,137,3.0,5.0,75,0.00,,,0.00,,2013-01-25 15:32:00,
2013-01-25 09:43:00,24.0,17.0,30.13,SE,137,3.0,5.0,75,0.00,,,0.00,,2013-01-25 15:43:00,
2013-01-25 09:53:00,25.0,17.0,30.13,South,183,2.0,6.0,72,0.00,,,0.00,,2013-01-25 15:53:00,
2013-01-25 10:03:00,25.0,17.0,30.13,South,183,2.0,6.0,72,0.00,,,0.00,,2013-01-25 16:03:00,
2013-01-25 10:12:00,25.0,17.0,30.13,South,183,2.0,6.0,72,0.00,,,0.00,,2013-01-25 16:12:00,
2013-01-25 10:22:00,26.0,17.0,30.14,South,190,3.0,6.0,69,0.00,,,0.00,,2013-01-25 16:22:00,
2013-01-25 10:32:00,26.0,17.0,30.14,South,190,3.0,6.0,69,0.00,,,0.00,,2013-01-25 16:32:00,
2013-01-25 10:43:00,26.0,17.0,30.14,South,190,3.0,6.0,69,0.00,,,0.00,,2013-01-25 16:43:00,
2013-01-25 10:53:00,27.0,17.0,30.14,SW,226,2.0,9.0,65,0.00,,,0.00,,2013-01-25 16:53:00,
2013-01-25 11:02:00,27.0,17.0,30.14,SW,226,2.0,9.0,65,0.00,,,0.00,,2013-01-25 17:02:00,
2013-01-25 11:12:00,27.0,17.0,30.14,SW,226,2.0,9.0,65,0.00,,,0.00,,2013-01-25 17:12:00,
2013-01-25 11:22:00,29.0,16.0,30.12,WSW,258,5.0,10.0,59,0.00,,,0.00,,2013-01-25 17:22:00,
2013-01-25 11:32:00,29.0,16.0,30.12,WSW,258,5.0,10.0,59,0.00,,,0.00,,2013-01-25 17:32:00,
2013-01-25 11:43:00,29.0,16.0,30.12,WSW,258,5.0,10.0,59,0.00,,,0.00,,2013-01-25 17:43:00,
2013-01-25 11:53:00,30.0,16.0,30.11,West,260,7.0,11.0,56,0.00,,,0.00,,2013-01-25 17:53:00,
2013-01-25 12:02:00,30.0,16.0,30.11,West,260,7.0,11.0,56,0.00,,,0.00,,2013-01-25 18:02:00,
2013-01-25 12:12:00,30.0,16.0,30.11,West,260,7.0,11.0,56,0.00,,,0.00,,2013-01-25 18:12:00,
2013-01-25 12:23:00,32.0,17.0,30.09,WSW,257,6.0,11.0,54,0.00,,,0.00,,2013-01-25 18:23:00,
2013-01-25 12:32:00,32.0,17.0,30.09,WSW,257,6.0,11.0,54,0.00,,,0.00,,2013-01-25 18:32:00,
2013-01-25 12:43:00,32.0,17.0,30.09,WSW,257,6.0,11.0,54,0.00,,,0.00,,2013-01-25 18:43:00,
2013-01-25 12:52:00,33.0,18.0,30.08,West,266,4.0,10.0,54,0.00,,,0.00,,2013-01-25 18:52:00,
2013-01-25 13:02:00,33.0,18.0,30.08,West,266,4.0,10.0,54,0.00,,,0.00,,2013-01-25 19:02:00,
2013-01-25 13:12:00,33.0,18.0,30.08,West,266,4.0,10.0,54,0.00,,,0.00,,2013-01-25 19:12:00,
2013-01-25 13:22:00,33.0,18.0,30.07,WSW,256,5.0,13.0,54,0.00,,,0.00,,2013-01-25 19:22:00,
2013-01-25 13:32:00,33.0,18.0,30.07,WSW,256,5.0,13.0,54,0.00,,,0.00,,2013-01-25 19:32:00,
2013-01-25 13:42:00,33.0,18.0,30.07,WSW,256,5.0,13.0,54,0.00,,,0.00,,2013-01-25 19:42:00,
2013-01-25 13:53:00,34.0,20.0,30.07,West,261,7.0,13.0,55,0.00,,,0.00,,2013-01-25 19:53:00,
2013-01-25 14:02:00,34.0,20.0,30.07,West,261,7.0,13.0,55,0.00,,,0.00,,2013-01-25 20:02:00,
2013-01-25 14:12:00,34.0,20.0,30.07,West,261,7.0,13.0,55,0.00,,,0.00,,2013-01-25 20:12:00,
2013-01-25 14:22:00,35.0,20.0,30.07,SW,222,7.0,13.0,55,0.00,,,0.00,,2013-01-25 20:22:00,
2013-01-25 14:32:00,35.0,20.0,30.07,SW,222,7.0,13.0,55,0.00,,,0.00,,2013-01-25 20:32:00,
2013-01-25 14:43:00,35.0,20.0,30.07,SW,222,7.0,13.0,55,0.00,,,0.00,,2013-01-25 20:43:00,
2013-01-25 14:52:00,36.0,21.0,30.07,SW,224,8.0,15.0,54,0.00,,,0.00,,2013-01-25 20:52:00,
2013-01-25 15:02:00,36.0,21.0,30.07,SW,224,8.0,15.0,54,0.00,,,0.00,,2013-01-25 21:02:00,
2013-01-25 15:12:00,36.0,21.0,30.07,SW,224,8.0,15.0,54,0.00,,,0.00,,2013-01-25 21:12:00,
2013-01-25 15:22:00,37.0,21.0,30.06,West,276,8.0,15.0,53,0.00,,,0.00,,2013-01-25 21:22:00,
2013-01-25 15:32:00,37.0,21.0,30.06,West,276,8.0,15.0,53,0.00,,,0.00,,2013-01-25 21:32:00,
2013-01-25 15:43:00,37.0,21.0,30.06,West,276,8.0,15.0,53,0.00,,,0.00,,2013-01-25 21:43:00,
2013-01-25 15:52:00,37.0,22.0,30.05,SW,233,8.0,15.0,54,0.00,,,0.00,,2013-01-25 21:52:00,
2013-01-25 16:02:00,37.0,22.0,30.05,SW,233,8.0,15.0,54,0.00,,,0.00,,2013-01-25 22:02:00,
2013-01-25 16:12:00,37.0,22.0,30.07,WSW,258,6.0,12.0,54,0.00,,,0.00,,2013-01-25 22:12:00,
2013-01-25 16:22:00,37.0,22.0,30.07,WSW,258,6.0,12.0,54,0.00,,,0.00,,2013-01-25 22:22:00,
2013-01-25 16:32:00,37.0,22.0,30.07,WSW,258,6.0,12.0,54,0.00,,,0.00,,2013-01-25 22:32:00,
2013-01-25 16:42:00,37.0,22.0,30.07,WSW,258,6.0,12.0,54,0.00,,,0.00,,2013-01-25 22:42:00,
2013-01-25 16:52:00,36.0,21.0,30.07,West,268,4.0,11.0,55,0.00,,,0.00,,2013-01-25 22:52:00,
2013-01-25 17:02:00,36.0,21.0,30.07,West,268,4.0,11.0,55,0.00,,,0.00,,2013-01-25 23:02:00,
2013-01-25 17:12:00,36.0,21.0,30.07,West,268,4.0,11.0,55,0.00,,,0.00,,2013-01-25 23:12:00,
2013-01-25 17:22:00,35.0,22.0,30.06,WSW,258,4.0,9.0,59,0.00,,,0.00,,2013-01-25 23:22:00,
2013-01-25 17:32:00,35.0,22.0,30.06,WSW,258,4.0,9.0,59,0.00,,,0.00,,2013-01-25 23:32:00,
2013-01-25 17:42:00,35.0,22.0,30.06,WSW,258,4.0,9.0,59,0.00,,,0.00,,2013-01-25 23:42:00,
2013-01-25 17:53:00,34.0,22.0,30.08,WSW,244,4.0,8.0,61,0.00,,,0.00,,2013-01-25 23:53:00,
2013-01-25 18:02:00,34.0,22.0,30.08,WSW,244,4.0,8.0,61,0.00,,,0.00,,2013-01-26 00:02:00,
2013-01-25 18:11:00,34.0,22.0,30.08,WSW,244,4.0,8.0,61,0.00,,,0.00,,2013-01-26 00:11:00,
2013-01-25 18:22:00,33.0,22.0,30.09,SW,227,2.0,5.0,63,0.00,,,0.00,,2013-01-26 00:22:00,
2013-01-25 18:32:00,33.0,22.0,30.09,SW,227,2.0,5.0,63,0.00,,,0.00,,2013-01-26 00:32:00,
2013-01-25 18:42:00,33.0,22.0,30.09,SW,227,2.0,5.0,63,0.00,,,0.00,,2013-01-26 00:42:00,
2013-01-25 18:53:00,32.0,22.0,30.09,SW,223,3.0,6.0,65,0.00,,,0.00,,2013-01-26 00:53:00,
2013-01-25 19:01:00,32.0,22.0,30.09,SW,223,3.0,6.0,65,0.00,,,0.00,,2013-01-26 01:01:00,
2013-01-25 19:11:00,32.0,22.0,30.09,SW,223,3.0,6.0,65,0.00,,,0.00,,2013-01-26 01:11:00,
2013-01-25 19:22:00,32.0,22.0,30.09,SW,223,3.0,6.0,65,0.00,,,0.00,,2013-01-26 01:22:00,
2013-01-25 19:32:00,32.0,22.0,30.09,SW,223,3.0,6.0,65,0.00,,,0.00,,2013-01-26 01:32:00,
2013-01-25 19:52:00,31.0,22.0,30.10,SW,227,3.0,6.0,68,0.00,,,0.00,,2013-01-26 01:52:00,
2013-01-25 20:01:00,31.0,22.0,30.10,SW,227,3.0,6.0,68,0.00,,,0.00,,2013-01-26 02:01:00,
2013-01-25 20:11:00,31.0,22.0,30.10,SW,227,3.0,6.0,68,0.00,,,0.00,,2013-01-26 02:11:00,
2013-01-25 20:22:00,31.0,21.0,30.10,SW,231,3.0,7.0,66,-99.99,,,-99.99,,2013-01-26 02:22:00,
2013-01-25 20:32:00,31.0,21.0,30.10,SW,231,3.0,7.0,66,-99.99,,,-99.99,,2013-01-26 02:32:00,
2013-01-25 20:42:00,31.0,21.0,30.10,SW,231,3.0,7.0,66,-99.99,,,-99.99,,2013-01-26 02:42:00,
2013-01-25 20:52:00,32.0,22.0,30.10,West,266,4.0,8.0,66,0.00,,,0.00,,2013-01-26 02:52:00,
2013-01-25 21:01:00,32.0,22.0,30.10,West,266,4.0,8.0,66,0.00,,,0.00,,2013-01-26 03:01:00,
2013-01-25 21:11:00,32.0,22.0,30.10,West,266,4.0,8.0,66,0.00,,,0.00,,2013-01-26 03:11:00,
2013-01-25 21:21:00,34.0,22.0,30.11,WSW,254,5.0,13.0,62,0.00,,,0.00,,2013-01-26 03:21:00,
2013-01-25 21:31:00,34.0,22.0,30.11,WSW,254,5.0,13.0,62,0.00,,,0.00,,2013-01-26 03:31:00,
2013-01-25 21:43:00,34.0,22.0,30.11,WSW,254,5.0,13.0,62,0.00,,,0.00,,2013-01-26 03:43:00,
2013-01-25 21:52:00,34.0,22.0,30.12,West,267,6.0,14.0,60,0.00,,,0.00,,2013-01-26 03:52:00,
2013-01-25 22:01:00,34.0,22.0,30.12,West,267,6.0,14.0,60,0.00,,,0.00,,2013-01-26 04:01:00,
2013-01-25 22:12:00,34.0,22.0,30.12,West,267,6.0,14.0,60,0.00,,,0.00,,2013-01-26 04:12:00,
2013-01-25 22:21:00,32.0,22.0,30.13,WNW,290,6.0,12.0,65,0.00,,,0.00,,2013-01-26 04:21:00,
2013-01-25 22:32:00,32.0,22.0,30.13,WNW,290,6.0,12.0,65,0.00,,,0.00,,2013-01-26 04:32:00,
2013-01-25 22:42:00,32.0,22.0,30.13,WNW,290,6.0,12.0,65,0.00,,,0.00,,2013-01-26 04:42:00,
2013-01-25 22:52:00,31.0,21.0,30.15,WNW,290,4.0,8.0,67,0.00,,,0.00,,2013-01-26 04:52:00,
2013-01-25 23:03:00,31.0,21.0,30.15,WNW,290,4.0,8.0,67,0.00,,,0.00,,2013-01-26 05:03:00,
2013-01-25 23:12:00,31.0,21.0,30.15,WNW,290,4.0,8.0,67,0.00,,,0.00,,2013-01-26 05:12:00,
2013-01-25 23:23:00,30.0,21.0,30.17,WNW,285,2.0,5.0,68,0.00,,,0.00,,2013-01-26 05:23:00,
2013-01-25 23:33:00,30.0,21.0,30.17,WNW,285,2.0,5.0,68,0.00,,,0.00,,2013-01-26 05:33:00,
2013-01-25 23:42:00,30.0,21.0,30.17,WNW,285,2.0,5.0,68,0.00,,,0.00,,2013-01-26 05:42:00,
2013-01-25 23:52:00,30.0,21.0,30.18,WNW,283,3.0,5.0,69,0.00,,,0.00,,2013-01-26 05:52:00,